Stündliche Wetter Cayo Santa María

Heute, 25 Januar, Montag

Zeit Temperatur Niederschläge Wind Luftdruck Luftfeuchtigkeit
00:00 +21°C° 0 mm 6 m/S 763 mmHg 94%
01:00 +20°C° 0 mm 6 m/S 762 mmHg 93%
02:00 +20°C° 0 mm 6 m/S 762 mmHg 94%
03:00 +20°C° 0 mm 6 m/S 762 mmHg 94%
04:00 +20°C° 0 mm 6 m/S 762 mmHg 94%
05:00 +20°C° 0 mm 6 m/S 762 mmHg 94%
06:00 +20°C° 0 mm 7 m/S 762 mmHg 94%
07:00 +20°C° 0 mm 7 m/S 762 mmHg 94%
08:00 +22°C° 0 mm 7 m/S 762 mmHg 86%
09:00 +23°C° 0 mm 7 m/S 763 mmHg 79%
10:00 +26°C° 0 mm 7 m/S 763 mmHg 72%
11:00 +27°C° 0 mm 7 m/S 763 mmHg 67%
12:00 +28°C° 0 mm 7 m/S 762 mmHg 63%
13:00 +29°C° 0 mm 7 m/S 762 mmHg 59%
14:00 +29°C° 0 mm 7 m/S 761 mmHg 60%
15:00 +29°C° 0 mm 7 m/S 761 mmHg 62%
16:00 +28°C° 0 mm 7 m/S 761 mmHg 63%
17:00 +27°C° 0 mm 7 m/S 761 mmHg 71%
18:00 +24°C° 0 mm 7 m/S 761 mmHg 79%
19:00 +23°C° 0 mm 8 m/S 761 mmHg 86%
20:00 +22°C° 0 mm 7 m/S 762 mmHg 89%
21:00 +22°C° 0 mm 7 m/S 762 mmHg 91%
22:00 +22°C° 0 mm 7 m/S 762 mmHg 93%
23:00 +21°C° 0 mm 6 m/S 762 mmHg 94%

Morgen, 26 Januar, Dienstag

Zeit Temperatur Niederschläge Wind Luftdruck Luftfeuchtigkeit
00:00 +21°C° 0 mm 6 m/S 762 mmHg 94%
01:00 +21°C° 0 mm 6 m/S 762 mmHg 95%
02:00 +21°C° 0 mm 6 m/S 761 mmHg 95%
03:00 +21°C° 0 mm 6 m/S 761 mmHg 95%
04:00 +21°C° 0 mm 6 m/S 761 mmHg 95%
05:00 +21°C° 0 mm 6 m/S 761 mmHg 95%
06:00 +21°C° 0 mm 6 m/S 761 mmHg 95%
07:00 +21°C° 0 mm 6 m/S 762 mmHg 95%
08:00 +23°C° 0 mm 6 m/S 762 mmHg 87%
09:00 +26°C° 0 mm 6 m/S 762 mmHg 79%
10:00 +28°C° 0 mm 6 m/S 763 mmHg 70%
11:00 +29°C° 0 mm 5 m/S 762 mmHg 64%
12:00 +30°C° 0 mm 5 m/S 762 mmHg 58%
13:00 +32°C° 0 mm 5 m/S 761 mmHg 52%
14:00 +32°C° 0 mm 5 m/S 761 mmHg 52%
15:00 +32°C° 0 mm 6 m/S 761 mmHg 52%
16:00 +32°C° 0 mm 7 m/S 761 mmHg 52%
17:00 +29°C° 0 mm 8 m/S 761 mmHg 63%
18:00 +27°C° 0 mm 8 m/S 761 mmHg 73%
19:00 +24°C° 0 mm 9 m/S 761 mmHg 84%
20:00 +24°C° 0 mm 8 m/S 761 mmHg 87%
21:00 +23°C° 0 mm 8 m/S 762 mmHg 91%
22:00 +23°C° 0 mm 8 m/S 762 mmHg 94%
23:00 +22°C° 0 mm 7 m/S 762 mmHg 95%

übermorgen, 27 Januar, Mittwoch

Zeit Temperatur Niederschläge Wind Luftdruck Luftfeuchtigkeit
00:00 +22°C° 0 mm 7 m/S 762 mmHg 95%
01:00 +22°C° 0 mm 7 m/S 762 mmHg 96%
02:00 +22°C° 0.1 mm 6 m/S 761 mmHg 96%
03:00 +22°C° 0.1 mm 6 m/S 761 mmHg 96%
04:00 +22°C° 0.1 mm 6 m/S 761 mmHg 96%
05:00 +22°C° 0 mm 6 m/S 761 mmHg 96%
06:00 +22°C° 0 mm 6 m/S 762 mmHg 96%
07:00 +22°C° 0 mm 6 m/S 762 mmHg 95%
08:00 +25°C° 0.1 mm 5 m/S 762 mmHg 88%
09:00 +26°C° 0.1 mm 5 m/S 763 mmHg 81%
10:00 +28°C° 0.1 mm 5 m/S 763 mmHg 73%
11:00 +29°C° 0 mm 4 m/S 763 mmHg 66%
12:00 +32°C° 0 mm 4 m/S 762 mmHg 59%
13:00 +33°C° 0 mm 4 m/S 762 mmHg 52%
14:00 +33°C° 0 mm 4 m/S 762 mmHg 53%
15:00 +32°C° 0 mm 5 m/S 761 mmHg 55%
16:00 +32°C° 0 mm 5 m/S 761 mmHg 56%
17:00 +29°C° 0 mm 5 m/S 761 mmHg 66%
18:00 +27°C° 0 mm 5 m/S 761 mmHg 76%
19:00 +25°C° 0 mm 5 m/S 762 mmHg 86%
20:00 +25°C° 0 mm 5 m/S 762 mmHg 88%
21:00 +23°C° 0 mm 4 m/S 762 mmHg 90%
22:00 +23°C° 0 mm 4 m/S 762 mmHg 92%
23:00 +24°C° 0 mm 3 m/S 762 mmHg 93%

28 Januar, Donnerstag

Zeit Temperatur Niederschläge Wind Luftdruck Luftfeuchtigkeit
00:00 +22°C° 0 mm 3 m/S 762 mmHg 93%
01:00 +23°C° 0 mm 2 m/S 762 mmHg 93%
02:00 +23°C° 0 mm 2 m/S 762 mmHg 93%
03:00 +23°C° 0 mm 2 m/S 762 mmHg 93%
04:00 +23°C° 0 mm 2 m/S 762 mmHg 92%
05:00 +23°C° 0 mm 2 m/S 762 mmHg 93%
06:00 +21°C° 0 mm 3 m/S 762 mmHg 94%
07:00 +21°C° 0 mm 3 m/S 762 mmHg 94%
08:00 +23°C° 0 mm 4 m/S 763 mmHg 85%
09:00 +26°C° 0 mm 5 m/S 763 mmHg 76%
10:00 +28°C° 0 mm 5 m/S 763 mmHg 67%
11:00 +29°C° 0 mm 5 m/S 763 mmHg 65%
12:00 +29°C° 0 mm 5 m/S 763 mmHg 63%
13:00 +29°C° 0 mm 5 m/S 763 mmHg 61%
14:00 +29°C° 0.1 mm 6 m/S 762 mmHg 64%
15:00 +28°C° 0.1 mm 7 m/S 762 mmHg 67%
16:00 +28°C° 0.1 mm 8 m/S 762 mmHg 70%
17:00 +26°C° 0.1 mm 9 m/S 762 mmHg 75%
18:00 +24°C° 0.1 mm 10 m/S 763 mmHg 80%
19:00 +23°C° 0.1 mm 11 m/S 763 mmHg 85%
20:00 +22°C° 0 mm 11 m/S 764 mmHg 82%
21:00 +22°C° 0 mm 11 m/S 764 mmHg 79%
22:00 +22°C° 0 mm 11 m/S 765 mmHg 76%
23:00 +21°C° 0 mm 11 m/S 764 mmHg 75%

29 Januar, Freitag

Zeit Temperatur Niederschläge Wind Luftdruck Luftfeuchtigkeit
00:00 +21°C° 0 mm 11 m/S 764 mmHg 75%
01:00 +19°C° 0 mm 11 m/S 764 mmHg 74%
02:00 +19°C° 0 mm 10 m/S 764 mmHg 75%
03:00 +18°C° 0 mm 10 m/S 764 mmHg 76%
04:00 +18°C° 0 mm 10 m/S 763 mmHg 78%
05:00 +18°C° 0 mm 10 m/S 764 mmHg 77%
06:00 +18°C° 0 mm 10 m/S 764 mmHg 76%
07:00 +18°C° 0 mm 10 m/S 764 mmHg 75%
08:00 +19°C° 0 mm 9 m/S 765 mmHg 72%
09:00 +21°C° 0 mm 9 m/S 765 mmHg 68%
10:00 +22°C° 0 mm 8 m/S 765 mmHg 65%
11:00 +22°C° 0.1 mm 8 m/S 765 mmHg 64%
12:00 +22°C° 0.1 mm 9 m/S 765 mmHg 63%
13:00 +22°C° 0.1 mm 9 m/S 764 mmHg 63%
14:00 +22°C° 0 mm 9 m/S 764 mmHg 65%
15:00 +22°C° 0 mm 9 m/S 764 mmHg 67%
16:00 +22°C° 0 mm 9 m/S 764 mmHg 69%
17:00 +21°C° 0.1 mm 9 m/S 764 mmHg 71%
18:00 +21°C° 0.1 mm 9 m/S 764 mmHg 74%
19:00 +19°C° 0.1 mm 10 m/S 765 mmHg 77%
20:00 +19°C° 0 mm 10 m/S 765 mmHg 73%
21:00 +21°C° 0 mm 10 m/S 765 mmHg 70%
22:00 +21°C° 0 mm 10 m/S 766 mmHg 66%
23:00 +19°C° 0 mm 10 m/S 765 mmHg 68%

30 Januar, Samstag

Zeit Temperatur Niederschläge Wind Luftdruck Luftfeuchtigkeit
00:00 +19°C° 0 mm 9 m/S 765 mmHg 70%
01:00 +18°C° 0 mm 9 m/S 765 mmHg 72%
02:00 +18°C° 0 mm 9 m/S 764 mmHg 75%
03:00 +18°C° 0 mm 10 m/S 764 mmHg 77%
04:00 +18°C° 0 mm 10 m/S 764 mmHg 80%
05:00 +18°C° 0.1 mm 10 m/S 764 mmHg 79%
06:00 +17°C° 0.1 mm 10 m/S 764 mmHg 78%
07:00 +17°C° 0.1 mm 10 m/S 764 mmHg 77%
08:00 +19°C° 0 mm 10 m/S 765 mmHg 71%
09:00 +22°C° 0 mm 10 m/S 765 mmHg 65%
10:00 +23°C° 0 mm 10 m/S 766 mmHg 59%
11:00 +24°C° 0.1 mm 10 m/S 765 mmHg 59%
12:00 +24°C° 0.1 mm 10 m/S 765 mmHg 60%
13:00 +24°C° 0.1 mm 10 m/S 764 mmHg 60%
14:00 +24°C° 0.1 mm 10 m/S 764 mmHg 59%
15:00 +24°C° 0.1 mm 10 m/S 764 mmHg 57%
16:00 +24°C° 0.1 mm 10 m/S 763 mmHg 55%
17:00 +23°C° 0.1 mm 10 m/S 764 mmHg 61%
18:00 +22°C° 0.1 mm 10 m/S 764 mmHg 67%
19:00 +19°C° 0.1 mm 10 m/S 764 mmHg 72%
20:00 +19°C° 0 mm 10 m/S 764 mmHg 74%
21:00 +19°C° 0 mm 10 m/S 765 mmHg 77%
22:00 +19°C° 0 mm 10 m/S 765 mmHg 79%
23:00 +19°C° 0.1 mm 10 m/S 765 mmHg 80%
Mehr zeigen

Wir brauchen deine Erlaubnis

Meteoprog und unser Service Anbieter werden persönliche Daten aufbewahren, so wie Cookies, Geräte Bezeichnung oder ähnliche Technologien von deinem Gerät und Prozess, so wie Persönliche Daten Inhalte und Werbungen, genauso wie social Media und den Verkehr zu analysieren.

  • Aufbewahrung und/oder Zugang zu deiner Geräte Informationen.

    Cookies, Geräte Bezeichnung oder andere Informationen, können aufbewahrt oder Zugang zu deinem Gerät erhalten, für den Grund, der oben angegeben wird.

  • Personalisierte Werbung und Inhalte, Messungen, Einblick in das Publikum und Produkt Entwicklung.

    Werbungen und Inhalte können personalisiert werden, basierend auf ein Profil. Mehr Daten können besser personalisierte Werbungen und Inhalte hinzufügen. Werbung und Inhalte können gezeigt und gemessen werden. Einblicke über das Publikum, welche die Werbung gesehen haben und den Inhalt, können abgeleitet werden. So wie Daten können genutzt werden, um es zu verbessern oder die Benutzer Erfahrung zu verbessern das System und die Software.

Wenn du “Ich stimme zu” klickst, erlaubst du uns, die Cookies zu benutzen die Geräte Bezeichnung, den Web oder ähnliche Technologien zu benutzen. Deine Settings, können in deinem Gerät bei deinem Browser geändert werden.

Für den bestimmten Zweck, berechtigten Interessen beruhen darauf, mehr als auf den Inhalt. Du kannst mehr darüber in unseren Privaten und Cookie Politik lesen.